Location: Berg
(48.4333°N, 13.9167°E)
Time: 05:00:47
(UTC+00:00)

ATLAS 3B R/B - Pass Details

Date: 18 September 2020
Orbit: 1016 x 1179 km, 63.8° (Epoch: 04 October)

Event Time Altitude Azimuth Distance (km) Brightness Sun altitude
Rises 17:40:00 0° 305° (NW) 3,783 6.9 -5.8°
Reaches altitude 10° 17:43:14 10° 320° (NW) 2,848 5.8 -6.3°
Maximum altitude 17:48:27 23° 11° (N) 2,077 4.2 -7.2°
Drops below altitude 10° 17:53:48 10° 62° (ENE) 2,925 4.5 -8.0°
Enters shadow 17:55:34 - 71° (ENE) 3,426 4.8 -8.3°
